Time,TemperatureF,DewpointF,PressureIn,WindDirection,WindDirectionDegrees,WindSpeedMPH,WindSpeedGustMPH,Humidity,HourlyPrecipIn,Conditions,Clouds,dailyrainin,SoftwareType,DateUTC
2013-06-23 00:00:00,63.1,37.7,30.33,NE,47,4.0,9.0,39,0.00,,,0.00,Weather View 32 v70,2013-06-23 07:00:00,
2013-06-23 00:06:00,63.0,37.6,30.33,ENE,61,0.0,9.0,39,0.00,,,0.00,Weather View 32 v70,2013-06-23 07:06:00,
2013-06-23 00:11:00,63.0,37.6,30.33,NNE,27,3.0,8.0,39,0.00,,,0.00,Weather View 32 v70,2013-06-23 07:11:00,
2013-06-23 00:15:00,62.8,37.4,30.33,NNE,13,0.0,8.0,39,0.00,,,0.00,Weather View 32 v70,2013-06-23 07:15:00,
2013-06-23 00:21:00,62.6,37.2,30.33,NNE,13,0.0,8.0,39,0.00,,,0.00,Weather View 32 v70,2013-06-23 07:21:00,
2013-06-23 00:26:00,62.4,37.1,30.33,NNE,13,0.0,8.0,39,0.00,,,0.00,Weather View 32 v70,2013-06-23 07:26:00,
2013-06-23 00:31:00,62.2,37.6,30.33,NNE,13,0.0,8.0,40,0.00,,,0.00,Weather View 32 v70,2013-06-23 07:31:00,
2013-06-23 00:36:00,62.1,37.4,30.33,NNE,13,0.0,8.0,40,0.00,,,0.00,Weather View 32 v70,2013-06-23 07:36:00,
2013-06-23 00:41:00,61.9,37.9,30.33,North,8,5.0,8.0,41,0.00,,,0.00,Weather View 32 v70,2013-06-23 07:41:00,
2013-06-23 00:46:00,61.7,37.7,30.33,North,10,4.0,6.0,41,0.00,,,0.00,Weather View 32 v70,2013-06-23 07:46:00,
2013-06-23 00:51:00,61.7,37.7,30.33,North,11,0.0,6.0,41,0.00,,,0.00,Weather View 32 v70,2013-06-23 07:51:00,
2013-06-23 00:56:00,61.7,37.7,30.33,North,11,0.0,6.0,41,0.00,,,0.00,Weather View 32 v70,2013-06-23 07:56:00,
2013-06-23 01:01:00,61.5,36.9,30.33,North,11,0.0,6.0,40,0.00,,,0.00,Weather View 32 v70,2013-06-23 08:01:00,
2013-06-23 01:06:00,61.3,37.4,30.33,North,11,0.0,6.0,41,0.00,,,0.00,Weather View 32 v70,2013-06-23 08:06:00,
2013-06-23 01:11:00,61.3,37.4,30.33,North,11,0.0,6.0,41,0.00,,,0.00,Weather View 32 v70,2013-06-23 08:11:00,
2013-06-23 01:16:00,61.2,37.2,30.33,North,11,0.0,6.0,41,0.00,,,0.00,Weather View 32 v70,2013-06-23 08:16:00,
2013-06-23 01:21:00,61.0,37.7,30.33,North,11,3.0,6.0,42,0.00,,,0.00,Weather View 32 v70,2013-06-23 08:21:00,
2013-06-23 01:26:00,61.0,37.7,30.33,North,11,3.0,6.0,42,0.00,,,0.00,Weather View 32 v70,2013-06-23 08:26:00,
2013-06-23 01:31:00,60.8,37.5,30.33,North,11,0.0,6.0,42,0.00,,,0.00,Weather View 32 v70,2013-06-23 08:31:00,
2013-06-23 01:36:00,60.6,37.3,30.33,North,11,0.0,6.0,42,0.00,,,0.00,Weather View 32 v70,2013-06-23 08:36:00,
2013-06-23 01:41:00,60.6,37.3,30.33,North,11,3.0,6.0,42,0.00,,,0.00,Weather View 32 v70,2013-06-23 08:41:00,
2013-06-23 01:46:00,60.4,37.8,30.33,North,11,0.0,6.0,43,0.00,,,0.00,Weather View 32 v70,2013-06-23 08:46:00,
2013-06-23 01:51:00,60.3,37.6,30.30,North,11,0.0,4.0,43,0.00,,,0.00,Weather View 32 v70,2013-06-23 08:51:00,
2013-06-23 01:56:00,60.1,37.5,30.30,North,11,0.0,4.0,43,0.00,,,0.00,Weather View 32 v70,2013-06-23 08:56:00,
2013-06-23 02:01:00,60.1,37.5,30.30,North,11,0.0,4.0,43,0.00,,,0.00,Weather View 32 v70,2013-06-23 09:01:00,
2013-06-23 02:06:00,59.9,37.3,30.30,North,11,0.0,4.0,43,0.00,,,0.00,Weather View 32 v70,2013-06-23 09:06:00,
2013-06-23 02:11:00,59.7,37.1,30.30,North,11,0.0,4.0,43,0.00,,,0.00,Weather View 32 v70,2013-06-23 09:11:00,
2013-06-23 02:16:00,59.7,37.1,30.30,North,11,0.0,4.0,43,0.00,,,0.00,Weather View 32 v70,2013-06-23 09:16:00,
2013-06-23 02:21:00,59.4,36.8,30.30,North,11,0.0,4.0,43,0.00,,,0.00,Weather View 32 v70,2013-06-23 09:21:00,
2013-06-23 02:26:00,59.4,36.8,30.30,North,11,0.0,4.0,43,0.00,,,0.00,Weather View 32 v70,2013-06-23 09:26:00,
2013-06-23 02:31:00,59.2,36.6,30.30,North,11,0.0,4.0,43,0.00,,,0.00,Weather View 32 v70,2013-06-23 09:31:00,
2013-06-23 02:36:00,58.8,36.9,30.30,North,11,0.0,4.0,44,0.00,,,0.00,Weather View 32 v70,2013-06-23 09:36:00,
2013-06-23 02:41:00,58.6,36.7,30.30,North,11,0.0,4.0,44,0.00,,,0.00,Weather View 32 v70,2013-06-23 09:41:00,
2013-06-23 02:51:00,58.5,36.6,30.30,North,11,0.0,2.0,44,0.00,,,0.00,Weather View 32 v70,2013-06-23 09:51:00,
2013-06-23 02:56:00,58.6,36.7,30.30,North,11,0.0,2.0,44,0.00,,,0.00,Weather View 32 v70,2013-06-23 09:56:00,
2013-06-23 03:01:00,58.6,36.7,30.30,North,11,0.0,2.0,44,0.00,,,0.00,Weather View 32 v70,2013-06-23 10:01:00,
2013-06-23 03:06:00,58.6,36.7,30.30,North,11,0.0,0.0,44,0.00,,,0.00,Weather View 32 v70,2013-06-23 10:06:00,
2013-06-23 03:11:00,58.6,36.7,30.30,North,11,0.0,0.0,44,0.00,,,0.00,Weather View 32 v70,2013-06-23 10:11:00,
2013-06-23 03:16:00,58.6,36.2,30.30,North,11,0.0,0.0,43,0.00,,,0.00,Weather View 32 v70,2013-06-23 10:16:00,
2013-06-23 03:21:00,58.6,36.2,30.30,North,11,0.0,0.0,43,0.00,,,0.00,Weather View 32 v70,2013-06-23 10:21:00,
2013-06-23 03:26:00,58.5,36.0,30.30,North,11,0.0,0.0,43,0.00,,,0.00,Weather View 32 v70,2013-06-23 10:26:00,
2013-06-23 03:31:00,58.3,35.8,30.30,North,11,0.0,0.0,43,0.00,,,0.00,Weather View 32 v70,2013-06-23 10:31:00,
2013-06-23 03:36:00,58.1,35.7,30.27,North,11,0.0,0.0,43,0.00,,,0.00,Weather View 32 v70,2013-06-23 10:36:00,
2013-06-23 03:41:00,58.1,35.7,30.27,North,11,0.0,0.0,43,0.00,,,0.00,Weather View 32 v70,2013-06-23 10:41:00,
2013-06-23 03:46:00,58.1,35.7,30.27,North,11,0.0,0.0,43,0.00,,,0.00,Weather View 32 v70,2013-06-23 10:46:00,
2013-06-23 03:51:00,58.1,35.7,30.30,North,11,0.0,0.0,43,0.00,,,0.00,Weather View 32 v70,2013-06-23 10:51:00,
2013-06-23 03:56:00,58.1,35.7,30.30,North,11,0.0,0.0,43,0.00,,,0.00,Weather View 32 v70,2013-06-23 10:56:00,
2013-06-23 04:01:00,57.9,35.5,30.30,North,11,0.0,0.0,43,0.00,,,0.00,Weather View 32 v70,2013-06-23 11:01:00,
2013-06-23 04:06:00,57.7,36.5,30.30,North,11,0.0,0.0,45,0.00,,,0.00,Weather View 32 v70,2013-06-23 11:06:00,
2013-06-23 04:11:00,57.4,36.2,30.30,North,11,0.0,0.0,45,0.00,,,0.00,Weather View 32 v70,2013-06-23 11:11:00,
2013-06-23 04:16:00,56.8,37.3,30.30,North,11,0.0,0.0,48,0.00,,,0.00,Weather View 32 v70,2013-06-23 11:16:00,
2013-06-23 04:21:00,56.7,37.7,30.30,North,11,0.0,0.0,49,0.00,,,0.00,Weather View 32 v70,2013-06-23 11:21:00,
2013-06-23 04:26:00,56.7,37.7,30.30,North,11,0.0,0.0,49,0.00,,,0.00,Weather View 32 v70,2013-06-23 11:26:00,
2013-06-23 04:31:00,56.7,38.2,30.30,North,11,0.0,0.0,50,0.00,,,0.00,Weather View 32 v70,2013-06-23 11:31:00,
2013-06-23 04:36:00,56.7,38.7,30.30,North,11,0.0,0.0,51,0.00,,,0.00,Weather View 32 v70,2013-06-23 11:36:00,
2013-06-23 04:41:00,56.5,38.5,30.30,North,11,0.0,0.0,51,0.00,,,0.00,Weather View 32 v70,2013-06-23 11:41:00,
2013-06-23 04:46:00,56.5,39.0,30.30,North,11,0.0,0.0,52,0.00,,,0.00,Weather View 32 v70,2013-06-23 11:46:00,
2013-06-23 04:51:00,56.5,39.5,30.30,North,11,0.0,0.0,53,0.00,,,0.00,Weather View 32 v70,2013-06-23 11:51:00,
2013-06-23 04:56:00,56.3,39.4,30.30,North,11,0.0,0.0,53,0.00,,,0.00,Weather View 32 v70,2013-06-23 11:56:00,
2013-06-23 05:01:00,56.3,39.4,30.30,North,11,0.0,0.0,53,0.00,,,0.00,Weather View 32 v70,2013-06-23 12:01:00,
2013-06-23 05:07:00,56.3,39.4,30.30,North,11,0.0,0.0,53,0.00,,,0.00,Weather View 32 v70,2013-06-23 12:07:00,
2013-06-23 05:12:00,56.1,40.1,30.30,North,11,0.0,0.0,55,0.00,,,0.00,Weather View 32 v70,2013-06-23 12:12:00,
2013-06-23 05:17:00,55.9,40.0,30.30,North,11,0.0,0.0,55,0.00,,,0.00,Weather View 32 v70,2013-06-23 12:17:00,
2013-06-23 05:22:00,55.9,40.4,30.30,North,11,0.0,0.0,56,0.00,,,0.00,Weather View 32 v70,2013-06-23 12:22:00,
2013-06-23 05:27:00,55.6,41.0,30.30,North,11,0.0,0.0,58,0.00,,,0.00,Weather View 32 v70,2013-06-23 12:27:00,
2013-06-23 05:32:00,55.6,41.5,30.30,North,11,0.0,0.0,59,0.00,,,0.00,Weather View 32 v70,2013-06-23 12:32:00,
2013-06-23 05:37:00,55.4,41.7,30.30,North,11,0.0,0.0,60,0.00,,,0.00,Weather View 32 v70,2013-06-23 12:37:00,
2013-06-23 05:42:00,55.4,42.6,30.30,North,11,0.0,0.0,62,0.00,,,0.00,Weather View 32 v70,2013-06-23 12:42:00,
2013-06-23 05:47:00,55.0,42.6,30.30,North,11,0.0,0.0,63,0.00,,,0.00,Weather View 32 v70,2013-06-23 12:47:00,
2013-06-23 05:52:00,54.9,42.5,30.27,North,11,0.0,0.0,63,0.00,,,0.00,Weather View 32 v70,2013-06-23 12:52:00,
2013-06-23 05:57:00,54.7,42.7,30.27,North,11,0.0,0.0,64,0.00,,,0.00,Weather View 32 v70,2013-06-23 12:57:00,
2013-06-23 06:02:00,54.5,42.5,30.27,North,11,0.0,0.0,64,0.00,,,0.00,Weather View 32 v70,2013-06-23 13:02:00,
2013-06-23 06:07:00,54.5,43.4,30.27,North,11,0.0,0.0,66,0.00,,,0.00,Weather View 32 v70,2013-06-23 13:07:00,
2013-06-23 06:12:00,54.7,43.5,30.27,North,11,0.0,0.0,66,0.00,,,0.00,Weather View 32 v70,2013-06-23 13:12:00,
2013-06-23 06:17:00,54.7,43.9,30.27,North,11,0.0,0.0,67,0.00,,,0.00,Weather View 32 v70,2013-06-23 13:17:00,
2013-06-23 06:22:00,54.9,44.1,30.27,North,11,0.0,0.0,67,0.00,,,0.00,Weather View 32 v70,2013-06-23 13:22:00,
2013-06-23 06:27:00,55.2,43.6,30.27,North,11,4.0,4.0,65,0.00,,,0.00,Weather View 32 v70,2013-06-23 13:27:00,
2013-06-23 06:32:00,55.8,43.7,30.27,North,11,0.0,4.0,64,0.00,,,0.00,Weather View 32 v70,2013-06-23 13:32:00,
2013-06-23 06:37:00,55.9,43.9,30.27,North,11,0.0,4.0,64,0.00,,,0.00,Weather View 32 v70,2013-06-23 13:37:00,
2013-06-23 06:42:00,56.3,43.4,30.27,North,11,0.0,4.0,62,0.00,,,0.00,Weather View 32 v70,2013-06-23 13:42:00,
2013-06-23 06:47:00,56.5,43.2,30.27,North,11,0.0,4.0,61,0.00,,,0.00,Weather View 32 v70,2013-06-23 13:47:00,
2013-06-23 06:52:00,56.7,42.9,30.27,North,11,4.0,4.0,60,0.00,,,0.00,Weather View 32 v70,2013-06-23 13:52:00,
2013-06-23 06:57:00,56.7,42.5,30.27,North,11,0.0,4.0,59,0.00,,,0.00,Weather View 32 v70,2013-06-23 13:57:00,
2013-06-23 07:04:00,56.8,42.6,30.27,North,11,0.0,4.0,59,0.00,,,0.00,Weather View 32 v70,2013-06-23 14:04:00,
2013-06-23 07:15:00,57.4,42.7,30.27,North,11,0.0,4.0,58,0.00,,,0.00,Weather View 32 v70,2013-06-23 14:15:00,
2013-06-23 07:23:00,57.6,43.3,30.27,North,11,0.0,4.0,59,0.00,,,0.00,Weather View 32 v70,2013-06-23 14:23:00,
2013-06-23 07:28:00,57.7,43.5,30.27,North,11,0.0,4.0,59,0.00,,,0.00,Weather View 32 v70,2013-06-23 14:28:00,
2013-06-23 07:33:00,57.9,43.6,30.27,North,11,0.0,4.0,59,0.00,,,0.00,Weather View 32 v70,2013-06-23 14:33:00,
2013-06-23 07:38:00,58.1,43.8,30.27,North,11,0.0,4.0,59,0.00,,,0.00,Weather View 32 v70,2013-06-23 14:38:00,
2013-06-23 07:43:00,58.5,43.2,30.27,North,11,0.0,4.0,57,0.00,,,0.00,Weather View 32 v70,2013-06-23 14:43:00,
2013-06-23 07:48:00,58.6,43.4,30.27,North,11,0.0,4.0,57,0.00,,,0.00,Weather View 32 v70,2013-06-23 14:48:00,
2013-06-23 07:53:00,58.8,43.1,30.27,North,11,0.0,4.0,56,0.00,,,0.00,Weather View 32 v70,2013-06-23 14:53:00,
2013-06-23 07:58:00,59.4,42.7,30.27,North,11,0.0,0.0,54,0.00,,,0.00,Weather View 32 v70,2013-06-23 14:58:00,
2013-06-23 08:03:00,59.7,41.5,30.27,North,11,0.0,0.0,51,0.00,,,0.00,Weather View 32 v70,2013-06-23 15:03:00,
2013-06-23 08:08:00,60.1,41.3,30.27,North,11,0.0,0.0,50,0.00,,,0.00,Weather View 32 v70,2013-06-23 15:08:00,
2013-06-23 08:13:00,60.1,40.8,30.27,North,11,0.0,0.0,49,0.00,,,0.00,Weather View 32 v70,2013-06-23 15:13:00,
2013-06-23 08:18:00,60.3,41.0,30.27,North,11,0.0,0.0,49,0.00,,,0.00,Weather View 32 v70,2013-06-23 15:18:00,
2013-06-23 08:23:00,60.4,40.6,30.27,NW,325,0.0,6.0,48,0.00,,,0.00,Weather View 32 v70,2013-06-23 15:23:00,
2013-06-23 08:28:00,60.4,40.6,30.27,NW,320,3.0,6.0,48,0.00,,,0.00,Weather View 32 v70,2013-06-23 15:28:00,
2013-06-23 08:33:00,60.6,40.2,30.27,West,276,3.0,6.0,47,0.00,,,0.00,Weather View 32 v70,2013-06-23 15:33:00,
2013-06-23 08:38:00,60.6,40.2,30.27,West,276,3.0,6.0,47,0.00,,,0.00,Weather View 32 v70,2013-06-23 15:38:00,
2013-06-23 08:43:00,60.8,40.4,30.27,WNW,290,5.0,6.0,47,0.00,,,0.00,Weather View 32 v70,2013-06-23 15:43:00,
2013-06-23 08:48:00,60.6,41.3,30.27,WNW,303,5.0,8.0,49,0.00,,,0.00,Weather View 32 v70,2013-06-23 15:48:00,
2013-06-23 08:53:00,60.1,41.3,30.27,WNW,301,5.0,8.0,50,0.00,,,0.00,Weather View 32 v70,2013-06-23 15:53:00,
2013-06-23 08:58:00,59.4,43.6,30.27,West,269,2.0,8.0,56,0.00,,,0.00,Weather View 32 v70,2013-06-23 15:58:00,
2013-06-23 09:03:00,58.8,44.5,30.27,West,272,0.0,8.0,59,0.00,,,0.00,Weather View 32 v70,2013-06-23 16:03:00,
2013-06-23 09:08:00,58.5,45.5,30.30,West,274,0.0,8.0,62,0.00,,,0.00,Weather View 32 v70,2013-06-23 16:08:00,
2013-06-23 09:13:00,58.3,45.7,30.30,West,276,0.0,8.0,63,0.00,,,0.00,Weather View 32 v70,2013-06-23 16:13:00,
2013-06-23 09:18:00,58.3,46.5,30.30,West,261,3.0,8.0,65,0.00,,,0.00,Weather View 32 v70,2013-06-23 16:18:00,
2013-06-23 09:23:00,58.5,46.7,30.27,WNW,292,5.0,8.0,65,0.00,,,0.00,Weather View 32 v70,2013-06-23 16:23:00,
2013-06-23 09:28:00,58.8,46.6,30.27,West,262,4.0,8.0,64,0.00,,,0.00,Weather View 32 v70,2013-06-23 16:28:00,
2013-06-23 09:33:00,58.8,45.4,30.27,West,277,4.0,8.0,61,0.00,,,0.00,Weather View 32 v70,2013-06-23 16:33:00,
2013-06-23 09:38:00,58.8,45.8,30.27,WNW,303,4.0,8.0,62,0.00,,,0.00,Weather View 32 v70,2013-06-23 16:38:00,
2013-06-23 09:43:00,59.0,46.0,30.27,WNW,299,3.0,8.0,62,0.00,,,0.00,Weather View 32 v70,2013-06-23 16:43:00,
2013-06-23 09:48:00,59.4,46.3,30.27,West,272,4.0,6.0,62,0.00,,,0.00,Weather View 32 v70,2013-06-23 16:48:00,
2013-06-23 09:53:00,59.7,47.1,30.27,NW,306,4.0,6.0,63,0.00,,,0.00,Weather View 32 v70,2013-06-23 16:53:00,
2013-06-23 09:57:00,60.1,47.4,30.27,WNW,294,4.0,6.0,63,0.00,,,0.00,Weather View 32 v70,2013-06-23 16:57:00,
2013-06-23 10:01:00,60.4,46.0,30.27,WNW,294,5.0,6.0,59,0.00,,,0.00,Weather View 32 v70,2013-06-23 17:01:00,
2013-06-23 10:06:00,60.4,46.5,30.27,West,274,4.0,6.0,60,0.00,,,0.00,Weather View 32 v70,2013-06-23 17:06:00,
2013-06-23 10:11:00,60.6,45.7,30.27,NW,304,4.0,6.0,58,0.00,,,0.00,Weather View 32 v70,2013-06-23 17:11:00,
2013-06-23 10:16:00,60.3,44.5,30.27,West,278,4.0,6.0,56,0.00,,,0.00,Weather View 32 v70,2013-06-23 17:16:00,
2013-06-23 10:21:00,60.3,44.9,30.27,West,262,3.0,6.0,57,0.00,,,0.00,Weather View 32 v70,2013-06-23 17:21:00,
2013-06-23 10:26:00,60.3,44.5,30.27,WSW,255,4.0,6.0,56,0.00,,,0.00,Weather View 32 v70,2013-06-23 17:26:00,
2013-06-23 10:31:00,60.1,43.8,30.27,WSW,252,5.0,6.0,55,0.00,,,0.00,Weather View 32 v70,2013-06-23 17:31:00,
2013-06-23 10:36:00,60.1,44.3,30.27,WNW,285,3.0,6.0,56,0.00,,,0.00,Weather View 32 v70,2013-06-23 17:36:00,
2013-06-23 10:41:00,60.3,44.9,30.27,WNW,284,4.0,6.0,57,0.00,,,0.00,Weather View 32 v70,2013-06-23 17:41:00,
2013-06-23 10:46:00,61.0,42.7,30.27,West,260,4.0,6.0,51,0.00,,,0.00,Weather View 32 v70,2013-06-23 17:46:00,
2013-06-23 10:51:00,61.5,44.2,30.27,SW,226,4.0,6.0,53,0.00,,,0.00,Weather View 32 v70,2013-06-23 17:51:00,
2013-06-23 10:56:00,61.5,42.7,30.27,SW,222,2.0,6.0,50,0.00,,,0.00,Weather View 32 v70,2013-06-23 17:56:00,
2013-06-23 11:00:00,61.3,42.5,30.27,SW,222,2.0,6.0,50,0.00,,,0.00,Weather View 32 v70,2013-06-23 18:00:00,
2013-06-23 11:05:00,61.3,42.5,30.24,SW,222,5.0,6.0,50,0.00,,,0.00,Weather View 32 v70,2013-06-23 18:05:00,
2013-06-23 11:10:00,61.2,42.3,30.24,WSW,238,4.0,6.0,50,0.00,,,0.00,Weather View 32 v70,2013-06-23 18:10:00,
2013-06-23 11:15:00,61.2,42.8,30.24,WSW,251,0.0,6.0,51,0.00,,,0.00,Weather View 32 v70,2013-06-23 18:15:00,
2013-06-23 11:20:00,61.3,43.0,30.24,WSW,251,4.0,6.0,51,0.00,,,0.00,Weather View 32 v70,2013-06-23 18:20:00,
2013-06-23 11:25:00,61.7,43.3,30.24,WSW,251,3.0,6.0,51,0.00,,,0.00,Weather View 32 v70,2013-06-23 18:25:00,
2013-06-23 11:30:00,61.7,43.3,30.24,SW,222,3.0,6.0,51,0.00,,,0.00,Weather View 32 v70,2013-06-23 18:30:00,
2013-06-23 11:35:00,61.7,42.8,30.24,SW,222,3.0,6.0,50,0.00,,,0.00,Weather View 32 v70,2013-06-23 18:35:00,
2013-06-23 11:40:00,61.7,42.8,30.24,SW,222,3.0,6.0,50,0.00,,,0.00,Weather View 32 v70,2013-06-23 18:40:00,
2013-06-23 11:45:00,61.9,43.5,30.24,SW,224,4.0,6.0,51,0.00,,,0.00,Weather View 32 v70,2013-06-23 18:45:00,
2013-06-23 11:50:00,62.2,43.3,30.24,WNW,286,5.0,6.0,50,0.00,,,0.00,Weather View 32 v70,2013-06-23 18:50:00,
2013-06-23 11:55:00,63.0,44.5,30.21,SW,226,6.0,6.0,51,0.00,,,0.00,Weather View 32 v70,2013-06-23 18:55:00,
2013-06-23 12:00:00,62.6,43.1,30.21,WSW,239,4.0,8.0,49,0.00,,,0.00,Weather View 32 v70,2013-06-23 19:00:00,
2013-06-23 12:05:00,62.4,43.0,30.24,SW,225,3.0,8.0,49,0.00,,,0.00,Weather View 32 v70,2013-06-23 19:05:00,
2013-06-23 12:10:00,62.2,42.8,30.24,SW,222,6.0,8.0,49,0.00,,,0.00,Weather View 32 v70,2013-06-23 19:10:00,
2013-06-23 12:15:00,62.1,43.2,30.24,SW,222,6.0,8.0,50,0.00,,,0.00,Weather View 32 v70,2013-06-23 19:15:00,
2013-06-23 12:20:00,62.1,43.2,30.24,WSW,245,3.0,8.0,50,0.00,,,0.00,Weather View 32 v70,2013-06-23 19:20:00,
2013-06-23 12:25:00,62.2,43.8,30.24,SW,222,4.0,8.0,51,0.00,,,0.00,Weather View 32 v70,2013-06-23 19:25:00,
2013-06-23 12:30:00,62.4,43.5,30.24,SW,222,3.0,8.0,50,0.00,,,0.00,Weather View 32 v70,2013-06-23 19:30:00,
2013-06-23 12:35:00,62.6,43.1,30.21,SW,230,4.0,8.0,49,0.00,,,0.00,Weather View 32 v70,2013-06-23 19:35:00,
2013-06-23 12:40:00,63.1,43.1,30.21,SW,222,6.0,8.0,48,0.00,,,0.00,Weather View 32 v70,2013-06-23 19:40:00,
2013-06-23 12:45:00,63.7,43.0,30.21,WSW,248,3.0,8.0,47,0.00,,,0.00,Weather View 32 v70,2013-06-23 19:45:00,
2013-06-23 12:50:00,63.9,43.7,30.21,SW,222,3.0,8.0,48,0.00,,,0.00,Weather View 32 v70,2013-06-23 19:50:00,
2013-06-23 12:55:00,64.8,42.9,30.21,SW,222,5.0,8.0,45,0.00,,,0.00,Weather View 32 v70,2013-06-23 19:55:00,
2013-06-23 13:00:00,64.6,42.7,30.21,SW,222,3.0,9.0,45,0.00,,,0.00,Weather View 32 v70,2013-06-23 20:00:00,
2013-06-23 13:05:00,64.2,43.0,30.21,SW,222,6.0,9.0,46,0.00,,,0.00,Weather View 32 v70,2013-06-23 20:05:00,
2013-06-23 13:10:00,64.4,43.7,30.21,SW,222,4.0,9.0,47,0.00,,,0.00,Weather View 32 v70,2013-06-23 20:10:00,
2013-06-23 13:15:00,64.4,43.7,30.21,SW,222,6.0,9.0,47,0.00,,,0.00,Weather View 32 v70,2013-06-23 20:15:00,
2013-06-23 13:20:00,63.9,43.7,30.21,SW,222,6.0,9.0,48,0.00,,,0.00,Weather View 32 v70,2013-06-23 20:20:00,
2013-06-23 13:25:00,62.8,45.4,30.21,SW,222,2.0,9.0,53,0.00,,,0.00,Weather View 32 v70,2013-06-23 20:25:00,
2013-06-23 13:30:00,62.4,45.5,30.21,SW,222,4.0,9.0,54,0.00,,,0.00,Weather View 32 v70,2013-06-23 20:30:00,
2013-06-23 13:35:00,62.2,46.3,30.21,SW,222,4.0,9.0,56,0.00,,,0.00,Weather View 32 v70,2013-06-23 20:35:00,
2013-06-23 13:40:00,61.3,45.5,30.21,SW,222,3.0,9.0,56,0.00,,,0.00,Weather View 32 v70,2013-06-23 20:40:00,
2013-06-23 13:45:00,59.7,47.5,30.21,SW,222,3.0,9.0,64,0.00,,,0.00,Weather View 32 v70,2013-06-23 20:45:00,
2013-06-23 13:50:00,59.4,50.3,30.21,SW,222,0.0,9.0,72,0.00,,,0.00,Weather View 32 v70,2013-06-23 20:50:00,
2013-06-23 13:55:00,59.2,50.1,30.21,SW,222,0.0,9.0,72,0.04,,,0.04,Weather View 32 v70,2013-06-23 20:55:00,
2013-06-23 14:00:00,58.8,50.5,30.21,SW,222,0.0,8.0,74,0.04,,,0.04,Weather View 32 v70,2013-06-23 21:00:00,
2013-06-23 14:05:00,59.0,51.8,30.21,SW,222,3.0,8.0,77,0.04,,,0.04,Weather View 32 v70,2013-06-23 21:05:00,
2013-06-23 14:10:00,58.8,52.3,30.21,SW,222,0.0,8.0,79,0.04,,,0.04,Weather View 32 v70,2013-06-23 21:10:00,
2013-06-23 14:15:00,58.6,51.8,30.21,SW,222,0.0,8.0,78,0.04,,,0.04,Weather View 32 v70,2013-06-23 21:15:00,
2013-06-23 14:20:00,58.6,51.8,30.21,SW,222,0.0,8.0,78,0.04,,,0.04,Weather View 32 v70,2013-06-23 21:20:00,
2013-06-23 14:25:00,58.5,52.0,30.18,SW,222,0.0,8.0,79,0.04,,,0.04,Weather View 32 v70,2013-06-23 21:25:00,
2013-06-23 14:30:00,58.1,51.9,30.18,SW,222,0.0,6.0,80,0.08,,,0.08,Weather View 32 v70,2013-06-23 21:30:00,
2013-06-23 14:35:00,58.1,51.9,30.21,SW,222,0.0,6.0,80,0.12,,,0.12,Weather View 32 v70,2013-06-23 21:35:00,
2013-06-23 14:40:00,58.1,52.3,30.21,SW,222,0.0,5.0,81,0.12,,,0.12,Weather View 32 v70,2013-06-23 21:40:00,
2013-06-23 14:45:00,58.1,53.3,30.21,SW,222,0.0,4.0,84,0.12,,,0.12,Weather View 32 v70,2013-06-23 21:45:00,
2013-06-23 14:50:00,57.9,54.1,30.21,SW,222,0.0,3.0,87,0.12,,,0.12,Weather View 32 v70,2013-06-23 21:50:00,
2013-06-23 14:55:00,57.9,54.1,30.21,SW,222,0.0,3.0,87,0.08,,,0.12,Weather View 32 v70,2013-06-23 21:55:00,
2013-06-23 15:00:00,57.9,53.7,30.21,SW,222,0.0,3.0,86,0.12,,,0.16,Weather View 32 v70,2013-06-23 22:00:00,
2013-06-23 15:05:00,57.7,53.2,30.21,SW,222,5.0,5.0,85,0.12,,,0.16,Weather View 32 v70,2013-06-23 22:05:00,
2013-06-23 15:10:00,57.9,53.1,30.21,SW,222,4.0,5.0,84,0.12,,,0.16,Weather View 32 v70,2013-06-23 22:10:00,
2013-06-23 15:15:00,58.1,53.9,30.21,SW,222,0.0,5.0,86,0.12,,,0.16,Weather View 32 v70,2013-06-23 22:15:00,
2013-06-23 15:20:00,58.3,53.8,30.21,SW,222,3.0,5.0,85,0.12,,,0.16,Weather View 32 v70,2013-06-23 22:20:00,
2013-06-23 15:25:00,57.9,53.1,30.21,SW,222,0.0,5.0,84,0.12,,,0.16,Weather View 32 v70,2013-06-23 22:25:00,
2013-06-23 15:30:00,58.5,54.0,30.21,SW,222,0.0,5.0,85,0.08,,,0.16,Weather View 32 v70,2013-06-23 22:30:00,
2013-06-23 15:35:00,58.5,54.0,30.21,SW,222,4.0,5.0,85,0.04,,,0.16,Weather View 32 v70,2013-06-23 22:35:00,
2013-06-23 15:40:00,58.3,53.5,30.21,SW,222,0.0,5.0,84,0.04,,,0.16,Weather View 32 v70,2013-06-23 22:40:00,
2013-06-23 15:45:00,58.1,53.0,30.21,SW,222,0.0,5.0,83,0.04,,,0.16,Weather View 32 v70,2013-06-23 22:45:00,
2013-06-23 15:50:00,58.1,53.0,30.18,SW,222,0.0,5.0,83,0.04,,,0.16,Weather View 32 v70,2013-06-23 22:50:00,
2013-06-23 15:55:00,58.3,53.1,30.18,SW,222,0.0,5.0,83,0.04,,,0.16,Weather View 32 v70,2013-06-23 22:55:00,
2013-06-23 16:01:00,58.3,53.1,30.18,SW,222,0.0,5.0,83,0.04,,,0.20,Weather View 32 v70,2013-06-23 23:01:00,
2013-06-23 16:06:00,58.1,53.0,30.21,SW,222,3.0,5.0,83,0.04,,,0.20,Weather View 32 v70,2013-06-23 23:06:00,
2013-06-23 16:11:00,57.6,52.1,30.21,WSW,242,0.0,5.0,82,0.04,,,0.20,Weather View 32 v70,2013-06-23 23:11:00,
2013-06-23 16:16:00,57.6,52.1,30.21,WSW,242,0.0,5.0,82,0.04,,,0.20,Weather View 32 v70,2013-06-23 23:16:00,
2013-06-23 16:21:00,57.9,53.1,30.18,WSW,242,0.0,5.0,84,0.04,,,0.20,Weather View 32 v70,2013-06-23 23:21:00,
2013-06-23 16:26:00,57.9,53.1,30.18,WSW,242,0.0,5.0,84,0.04,,,0.20,Weather View 32 v70,2013-06-23 23:26:00,
2013-06-23 16:31:00,58.3,53.8,30.18,WSW,242,0.0,5.0,85,0.04,,,0.20,Weather View 32 v70,2013-06-23 23:31:00,
2013-06-23 16:36:00,58.3,53.5,30.18,WSW,242,0.0,5.0,84,0.04,,,0.20,Weather View 32 v70,2013-06-23 23:36:00,
2013-06-23 16:41:00,58.3,54.1,30.18,WSW,242,0.0,5.0,86,0.04,,,0.20,Weather View 32 v70,2013-06-23 23:41:00,
2013-06-23 16:46:00,58.5,54.3,30.18,WSW,242,2.0,5.0,86,0.04,,,0.20,Weather View 32 v70,2013-06-23 23:46:00,
2013-06-23 16:51:00,59.0,55.4,30.18,WSW,238,0.0,5.0,88,0.04,,,0.20,Weather View 32 v70,2013-06-23 23:51:00,
2013-06-23 16:56:00,59.0,54.8,30.18,SW,233,0.0,5.0,86,0.04,,,0.20,Weather View 32 v70,2013-06-23 23:56:00,
2013-06-23 17:00:00,59.2,55.0,30.18,SW,233,0.0,5.0,86,0.00,,,0.20,Weather View 32 v70,2013-06-24 00:00:00,
2013-06-23 17:01:00,59.2,55.0,30.18,SW,233,0.0,5.0,86,0.00,,,0.20,Weather View 32 v70,2013-06-24 00:01:00,
2013-06-23 17:06:00,59.0,53.5,30.18,SW,222,3.0,5.0,82,0.00,,,0.20,Weather View 32 v70,2013-06-24 00:06:00,
2013-06-23 17:11:00,59.2,53.7,30.18,SW,222,0.0,3.0,82,0.00,,,0.20,Weather View 32 v70,2013-06-24 00:11:00,
2013-06-23 17:16:00,59.4,53.8,30.18,SW,222,0.0,3.0,82,0.00,,,0.20,Weather View 32 v70,2013-06-24 00:16:00,
2013-06-23 17:21:00,59.5,54.0,30.18,SW,222,0.0,3.0,82,0.00,,,0.20,Weather View 32 v70,2013-06-24 00:21:00,
2013-06-23 17:27:00,59.5,54.0,30.18,SW,222,0.0,3.0,82,0.00,,,0.20,Weather View 32 v70,2013-06-24 00:27:00,
2013-06-23 17:32:00,59.4,53.8,30.18,SW,222,0.0,3.0,82,0.00,,,0.20,Weather View 32 v70,2013-06-24 00:32:00,
2013-06-23 17:37:00,59.2,53.3,30.18,SW,222,0.0,3.0,81,0.00,,,0.20,Weather View 32 v70,2013-06-24 00:37:00,
2013-06-23 17:42:00,58.8,52.6,30.18,SW,222,2.0,4.0,80,-0.20,,,0.20,Weather View 32 v70,2013-06-24 00:42:00,
2013-06-23 17:47:00,58.8,53.0,30.18,SW,223,0.0,4.0,81,0.00,,,0.20,Weather View 32 v70,2013-06-24 00:47:00,
2013-06-23 17:52:00,58.8,53.0,30.18,WSW,250,0.0,4.0,81,0.00,,,0.20,Weather View 32 v70,2013-06-24 00:52:00,
2013-06-23 17:57:00,59.0,53.5,30.18,NE,37,0.0,4.0,82,0.00,,,0.20,Weather View 32 v70,2013-06-24 00:57:00,
2013-06-23 18:00:00,58.8,53.3,30.18,East,81,3.0,4.0,82,0.00,,,0.20,Weather View 32 v70,2013-06-24 01:00:00,
2013-06-23 18:02:00,58.8,53.3,30.18,NE,44,3.0,4.0,82,0.00,,,0.20,Weather View 32 v70,2013-06-24 01:02:00,
2013-06-23 18:07:00,58.6,53.1,30.18,NE,50,0.0,4.0,82,0.00,,,0.20,Weather View 32 v70,2013-06-24 01:07:00,
2013-06-23 18:12:00,58.8,53.3,30.18,NE,50,0.0,4.0,82,0.00,,,0.20,Weather View 32 v70,2013-06-24 01:12:00,
2013-06-23 18:17:00,58.6,52.8,30.18,NE,52,0.0,4.0,81,0.00,,,0.20,Weather View 32 v70,2013-06-24 01:17:00,
2013-06-23 18:22:00,59.0,53.2,30.18,NE,52,0.0,4.0,81,0.00,,,0.20,Weather View 32 v70,2013-06-24 01:22:00,
2013-06-23 18:27:00,59.4,53.8,30.18,NE,52,0.0,4.0,82,0.00,,,0.20,Weather View 32 v70,2013-06-24 01:27:00,
2013-06-23 18:32:00,59.2,52.7,30.18,NE,52,0.0,4.0,79,0.00,,,0.20,Weather View 32 v70,2013-06-24 01:32:00,
2013-06-23 18:37:00,59.2,52.7,30.18,ENE,61,0.0,4.0,79,0.00,,,0.20,Weather View 32 v70,2013-06-24 01:37:00,
2013-06-23 18:42:00,59.2,52.3,30.18,ENE,61,0.0,4.0,78,0.00,,,0.20,Weather View 32 v70,2013-06-24 01:42:00,
2013-06-23 18:47:00,59.2,52.7,30.18,ENE,61,0.0,4.0,79,0.00,,,0.20,Weather View 32 v70,2013-06-24 01:47:00,
2013-06-23 18:52:00,59.0,52.5,30.18,ENE,61,0.0,4.0,79,0.00,,,0.20,Weather View 32 v70,2013-06-24 01:52:00,
2013-06-23 18:57:00,59.0,52.1,30.18,ENE,61,0.0,4.0,78,0.00,,,0.20,Weather View 32 v70,2013-06-24 01:57:00,
2013-06-23 19:00:00,59.0,52.1,30.18,ENE,61,0.0,4.0,78,0.00,,,0.20,Weather View 32 v70,2013-06-24 02:00:00,
2013-06-23 19:02:00,59.0,52.5,30.18,ENE,61,0.0,4.0,79,0.00,,,0.20,Weather View 32 v70,2013-06-24 02:02:00,
2013-06-23 19:07:00,59.0,52.5,30.18,ENE,61,0.0,4.0,79,0.00,,,0.20,Weather View 32 v70,2013-06-24 02:07:00,
2013-06-23 19:12:00,59.0,52.5,30.18,ENE,57,0.0,4.0,79,0.00,,,0.20,Weather View 32 v70,2013-06-24 02:12:00,
2013-06-23 19:17:00,59.2,52.3,30.18,ENE,57,0.0,4.0,78,0.00,,,0.20,Weather View 32 v70,2013-06-24 02:17:00,
2013-06-23 19:22:00,59.2,52.3,30.18,ENE,57,0.0,4.0,78,0.00,,,0.20,Weather View 32 v70,2013-06-24 02:22:00,
2013-06-23 19:27:00,59.4,51.8,30.18,ENE,57,0.0,4.0,76,0.00,,,0.20,Weather View 32 v70,2013-06-24 02:27:00,
2013-06-23 19:32:00,59.5,51.2,30.18,ENE,57,0.0,4.0,74,0.00,,,0.20,Weather View 32 v70,2013-06-24 02:32:00,
2013-06-23 19:37:00,59.5,50.9,30.15,ENE,57,0.0,3.0,73,0.00,,,0.20,Weather View 32 v70,2013-06-24 02:37:00,
2013-06-23 19:42:00,59.4,51.1,30.15,ENE,57,4.0,4.0,74,0.00,,,0.20,Weather View 32 v70,2013-06-24 02:42:00,
2013-06-23 19:47:00,59.2,51.2,30.15,ENE,58,0.0,4.0,75,0.00,,,0.20,Weather View 32 v70,2013-06-24 02:47:00,
2013-06-23 19:52:00,59.0,51.4,30.15,ENE,58,2.0,4.0,76,0.00,,,0.20,Weather View 32 v70,2013-06-24 02:52:00,
2013-06-23 19:58:00,58.8,52.3,30.15,ESE,102,4.0,4.0,79,0.00,,,0.20,Weather View 32 v70,2013-06-24 02:58:00,
2013-06-23 20:00:00,58.6,51.8,30.15,SE,134,3.0,4.0,78,0.00,,,0.20,Weather View 32 v70,2013-06-24 03:00:00,
2013-06-23 20:03:00,58.6,51.8,30.15,SE,125,0.0,4.0,78,0.00,,,0.20,Weather View 32 v70,2013-06-24 03:03:00,
2013-06-23 20:08:00,58.5,52.0,30.15,SE,128,0.0,4.0,79,0.00,,,0.20,Weather View 32 v70,2013-06-24 03:08:00,
2013-06-23 20:13:00,58.3,51.8,30.15,SE,128,0.0,4.0,79,0.00,,,0.20,Weather View 32 v70,2013-06-24 03:13:00,
2013-06-23 20:18:00,58.1,51.6,30.15,SE,129,0.0,4.0,79,0.00,,,0.20,Weather View 32 v70,2013-06-24 03:18:00,
2013-06-23 20:23:00,58.1,51.6,30.15,SE,129,0.0,4.0,79,0.00,,,0.20,Weather View 32 v70,2013-06-24 03:23:00,
2013-06-23 20:28:00,57.9,51.8,30.15,SE,130,0.0,4.0,80,0.00,,,0.20,Weather View 32 v70,2013-06-24 03:28:00,
2013-06-23 20:33:00,57.9,52.1,30.15,SE,129,0.0,4.0,81,0.00,,,0.20,Weather View 32 v70,2013-06-24 03:33:00,
2013-06-23 20:38:00,57.9,52.1,30.18,SE,126,3.0,4.0,81,0.00,,,0.20,Weather View 32 v70,2013-06-24 03:38:00,
2013-06-23 20:43:00,57.7,51.9,30.18,SE,126,0.0,4.0,81,0.00,,,0.20,Weather View 32 v70,2013-06-24 03:43:00,
2013-06-23 20:48:00,57.6,52.1,30.18,SE,138,3.0,4.0,82,0.00,,,0.20,Weather View 32 v70,2013-06-24 03:48:00,
2013-06-23 20:53:00,57.4,51.6,30.15,SE,137,0.0,4.0,81,0.00,,,0.20,Weather View 32 v70,2013-06-24 03:53:00,
2013-06-23 20:58:00,57.0,51.6,30.15,SE,137,0.0,4.0,82,0.00,,,0.20,Weather View 32 v70,2013-06-24 03:58:00,
2013-06-23 21:00:00,57.0,51.6,30.15,SE,138,0.0,4.0,82,0.00,,,0.20,Weather View 32 v70,2013-06-24 04:00:00,
2013-06-23 21:01:00,56.8,51.4,30.15,SE,138,0.0,4.0,82,0.00,,,0.20,Weather View 32 v70,2013-06-24 04:01:00,
2013-06-23 21:06:00,56.7,51.2,30.15,SE,137,0.0,4.0,82,0.00,,,0.20,Weather View 32 v70,2013-06-24 04:06:00,
2013-06-23 21:11:00,56.5,51.0,30.15,SE,137,0.0,4.0,82,0.00,,,0.20,Weather View 32 v70,2013-06-24 04:11:00,
2013-06-23 21:15:00,56.5,51.4,30.15,SE,137,0.0,4.0,83,0.00,,,0.20,Weather View 32 v70,2013-06-24 04:15:00,
2013-06-23 21:20:00,56.3,51.2,30.15,SE,138,0.0,4.0,83,0.00,,,0.20,Weather View 32 v70,2013-06-24 04:20:00,
2013-06-23 21:25:00,55.9,50.8,30.18,SE,137,0.0,4.0,83,0.00,,,0.20,Weather View 32 v70,2013-06-24 04:25:00,
2013-06-23 21:30:00,55.9,51.2,30.18,SE,137,0.0,4.0,84,0.00,,,0.20,Weather View 32 v70,2013-06-24 04:30:00,
2013-06-23 21:35:00,55.9,51.2,30.18,SE,133,0.0,4.0,84,0.00,,,0.20,Weather View 32 v70,2013-06-24 04:35:00,
2013-06-23 21:40:00,56.1,51.3,30.18,SE,133,0.0,4.0,84,0.00,,,0.20,Weather View 32 v70,2013-06-24 04:40:00,
2013-06-23 21:45:00,56.1,51.3,30.18,SE,133,0.0,4.0,84,0.00,,,0.20,Weather View 32 v70,2013-06-24 04:45:00,
2013-06-23 21:50:00,56.1,51.3,30.18,SE,133,0.0,3.0,84,0.00,,,0.20,Weather View 32 v70,2013-06-24 04:50:00,
2013-06-23 21:55:00,56.1,51.7,30.18,SE,133,0.0,3.0,85,0.00,,,0.20,Weather View 32 v70,2013-06-24 04:55:00,
2013-06-23 21:58:00,56.3,51.8,30.18,SE,133,0.0,3.0,85,0.00,,,0.20,Weather View 32 v70,2013-06-24 04:58:00,
2013-06-23 22:00:00,56.3,51.8,30.18,SE,133,3.0,3.0,85,0.00,,,0.20,Weather View 32 v70,2013-06-24 05:00:00,
2013-06-23 22:05:00,56.3,52.5,30.18,ESE,117,3.0,4.0,87,0.00,,,0.20,Weather View 32 v70,2013-06-24 05:05:00,
2013-06-23 22:10:00,56.1,52.3,30.18,ESE,117,0.0,4.0,87,0.08,,,0.28,Weather View 32 v70,2013-06-24 05:10:00,
2013-06-23 22:15:00,56.1,52.3,30.18,ESE,117,0.0,4.0,87,0.08,,,0.28,Weather View 32 v70,2013-06-24 05:15:00,
2013-06-23 22:20:00,55.9,52.1,30.18,ESE,117,0.0,4.0,87,0.08,,,0.28,Weather View 32 v70,2013-06-24 05:20:00,
2013-06-23 22:25:00,55.9,52.1,30.18,ESE,117,0.0,4.0,87,0.08,,,0.28,Weather View 32 v70,2013-06-24 05:25:00,
2013-06-23 22:30:00,55.9,52.1,30.18,ESE,117,0.0,4.0,87,0.08,,,0.28,Weather View 32 v70,2013-06-24 05:30:00,
2013-06-23 22:35:00,55.9,52.4,30.18,ESE,117,0.0,4.0,88,0.08,,,0.28,Weather View 32 v70,2013-06-24 05:35:00,
2013-06-23 22:40:00,55.9,52.7,30.18,ESE,117,0.0,4.0,89,0.08,,,0.28,Weather View 32 v70,2013-06-24 05:40:00,
2013-06-23 22:45:00,55.8,52.9,30.18,ESE,117,0.0,4.0,90,0.08,,,0.28,Weather View 32 v70,2013-06-24 05:45:00,
2013-06-23 22:50:00,55.8,52.9,30.18,ESE,117,0.0,4.0,90,0.08,,,0.28,Weather View 32 v70,2013-06-24 05:50:00,
2013-06-23 22:55:00,55.8,52.9,30.18,ESE,117,0.0,4.0,90,0.08,,,0.28,Weather View 32 v70,2013-06-24 05:55:00,
2013-06-23 23:00:00,55.8,52.9,30.18,ESE,117,0.0,4.0,90,0.08,,,0.28,Weather View 32 v70,2013-06-24 06:00:00,
2013-06-23 23:05:00,55.8,53.2,30.18,ESE,117,0.0,3.0,91,0.08,,,0.28,Weather View 32 v70,2013-06-24 06:05:00,
2013-06-23 23:10:00,55.6,53.0,30.18,ESE,117,0.0,3.0,91,0.00,,,0.28,Weather View 32 v70,2013-06-24 06:10:00,
2013-06-23 23:15:00,55.6,53.0,30.18,ESE,117,0.0,0.0,91,0.00,,,0.28,Weather View 32 v70,2013-06-24 06:15:00,
2013-06-23 23:20:00,55.6,53.3,30.18,ESE,117,2.0,0.0,92,0.00,,,0.28,Weather View 32 v70,2013-06-24 06:20:00,
2013-06-23 23:25:00,55.8,53.5,30.18,ESE,117,0.0,3.0,92,0.00,,,0.28,Weather View 32 v70,2013-06-24 06:25:00,
2013-06-23 23:30:00,55.6,53.3,30.18,ESE,120,0.0,3.0,92,0.00,,,0.28,Weather View 32 v70,2013-06-24 06:30:00,
2013-06-23 23:35:00,55.6,53.3,30.18,ESE,120,0.0,3.0,92,0.00,,,0.28,Weather View 32 v70,2013-06-24 06:35:00,
2013-06-23 23:40:00,55.6,53.3,30.18,ESE,120,0.0,3.0,92,0.00,,,0.28,Weather View 32 v70,2013-06-24 06:40:00,
2013-06-23 23:45:00,55.6,53.3,30.18,ESE,120,0.0,3.0,92,0.00,,,0.28,Weather View 32 v70,2013-06-24 06:45:00,
2013-06-23 23:50:00,55.6,53.3,30.18,ESE,120,0.0,3.0,92,0.00,,,0.28,Weather View 32 v70,2013-06-24 06:50:00,
2013-06-23 23:55:00,55.6,53.3,30.18,ESE,120,0.0,3.0,92,0.00,,,0.28,Weather View 32 v70,2013-06-24 06:55:00,